Madison, WI

11:16 PM CDT on September 23, 2017 (GMT -0500)
Dane County Regional-Truax

Weather History for KMSN - August, 2014

Change the Weather History Date:

Saturday, August 16, 2014

  Actual Average Record
Temperature  
Mean Temperature 75 °F 70 °F  
Max Temperature 85 °F 80 °F 102 °F (1988)
Min Temperature 64 °F 59 °F 38 °F (1979)
Degree Days  
Heating Degree Days 0 1  
Month to date heating degree days 4 13  
Since 1 June heating degree days 26 83  
Since 1 July heating degree days 17 23  
Cooling Degree Days 10 5  
Month to date cooling degree days 77 92  
Year to date cooling degree days 453 448  
Since 1 June cooling degree days 402 418  
Growing Degree Days 24 (Base 50)    
Moisture  
Dew Point 65 °F    
Average Humidity 74    
Maximum Humidity 93    
Minimum Humidity 55    
Precipitation  
Precipitation T in 0.15 in 3.25 in (1886)
Month to date precipitation 2.69 2.25  
Year to date precipitation 25.07 22.80  
Snow  
Snow 0.00 in 0.00 in 0.00 in ()
Month to date snowfall 0.0 0.0  
Since 1 June snowfall 0.0 0.0  
Since 1 July snowfall 0.0 0.0  
Snow Depth 0.00 in    
Sea Level Pressure  
Sea Level Pressure 29.89 in    
Wind  
Wind Speed 4 mph (SW)    
Max Wind Speed 16 mph    
Max Gust Speed 33 mph    
Visibility 9 miles    
Events      
T = Trace of Precipitation, MM = Missing Value Source: NWS Daily Summary

Daily Weather History Graph

Daily Weather History Graph

Search for Another Location

Airport or City:

Trip Planner

Search our weather history database for the weather conditions in past years. The results will help you decide how hot, cold, wet, or windy it might be!

Date:

Astronomy

Aug. 16, 2014 Rise Set
Actual Time 6:04 AM CDT 7:58 PM CDT
Civil Twilight 5:33 AM CDT 8:28 PM CDT
Nautical Twilight 4:55 AM CDT 9:06 PM CDT
Astronomical Twilight 4:15 AM CDT 9:46 PM CDT
Moon 11:29 PM CDT (8/16) 1:01 PM CDT (8/16)
Length of Visible Light 14h 55m
Length of Day
13h 54m
Waning Gibbous, 58% of the Moon is Illuminated
Aug 16
Waning Gibbous
Aug 17
Last Quarter
Aug 25
New
Sep 2
First Quarter
Sep 8
Full

Hourly Weather History & Observations

Time (CDT) Temp. Heat Index Dew Point Humidity Pressure Visibility Wind Dir Wind Speed Gust Speed Precip Events Conditions
12:53 AM 68.0 °F - 61.0 °F 78% 29.91 in 10.0 mi SW 4.6 mph - N/A   Clear
1:53 AM 66.9 °F - 61.0 °F 81% 29.90 in 10.0 mi SW 4.6 mph - N/A   Clear
2:53 AM 66.0 °F - 61.0 °F 84% 29.88 in 10.0 mi SSW 5.8 mph - N/A   Clear
3:53 AM 64.9 °F - 61.0 °F 87% 29.90 in 10.0 mi SSW 5.8 mph - N/A   Clear
4:53 AM 64.9 °F - 62.1 °F 90% 29.90 in 9.0 mi SW 5.8 mph - N/A   Clear
5:48 AM 64.4 °F - 62.6 °F 94% 29.92 in 7.0 mi Variable 3.5 mph - N/A   Scattered Clouds
5:53 AM 64.9 °F - 62.1 °F 90% 29.90 in 7.0 mi Calm Calm - N/A   Scattered Clouds
6:44 AM 64.9 °F - 62.1 °F 90% 29.92 in 3.0 mi Calm Calm - N/A   Overcast
6:53 AM 64.9 °F - 63.0 °F 93% 29.91 in 3.0 mi SSW 4.6 mph - N/A   Overcast
7:53 AM 66.0 °F - 63.0 °F 90% 29.91 in 3.0 mi Calm Calm - N/A   Overcast
8:53 AM 68.0 °F - 63.0 °F 84% 29.90 in 3.0 mi Variable 3.5 mph - N/A   Haze
9:36 AM 71.1 °F - 64.9 °F 81% 29.91 in 8.0 mi Calm Calm - N/A   Scattered Clouds
9:53 AM 73.0 °F - 64.9 °F 76% 29.90 in 10.0 mi Variable 5.8 mph - N/A   Scattered Clouds
10:53 AM 75.0 °F - 64.0 °F 69% 29.90 in 10.0 mi SW 5.8 mph - N/A   Scattered Clouds
11:53 AM 78.1 °F - 66.0 °F 66% 29.90 in 10.0 mi Variable 3.5 mph - N/A   Scattered Clouds
12:53 PM 80.1 °F 82.1 °F 66.0 °F 62% 29.89 in 10.0 mi WSW 6.9 mph - N/A   Mostly Cloudy
1:53 PM 81.0 °F 83.0 °F 66.0 °F 60% 29.88 in 10.0 mi WNW 6.9 mph - N/A   Mostly Cloudy
2:53 PM 82.0 °F 84.1 °F 66.0 °F 58% 29.86 in 10.0 mi Variable 4.6 mph - N/A   Mostly Cloudy
3:53 PM 82.9 °F 85.4 °F 66.9 °F 58% 29.86 in 10.0 mi North 3.5 mph - N/A   Mostly Cloudy
4:53 PM 84.0 °F 86.5 °F 66.9 °F 56% 29.85 in 10.0 mi Calm Calm - N/A   Mostly Cloudy
5:53 PM 82.9 °F 85.0 °F 66.0 °F 56% 29.85 in 10.0 mi Calm Calm - N/A   Mostly Cloudy
6:53 PM 82.9 °F 85.4 °F 66.9 °F 58% 29.86 in 10.0 mi Calm Calm - N/A   Mostly Cloudy
7:53 PM 75.0 °F - 68.0 °F 79% 29.87 in 10.0 mi Calm Calm - N/A   Mostly Cloudy
8:53 PM 75.0 °F - 66.9 °F 76% 29.88 in 10.0 mi SSW 3.5 mph - N/A   Scattered Clouds
9:53 PM 75.9 °F - 68.0 °F 76% 29.89 in 10.0 mi SW 4.6 mph - N/A   Scattered Clouds
10:53 PM 75.9 °F - 66.9 °F 74% 29.90 in 10.0 mi SW 3.5 mph - N/A   Mostly Cloudy
11:18 PM 73.9 °F - 68.0 °F 82% 29.93 in 10.0 mi North 5.8 mph - N/A   Overcast
11:53 PM 73.0 °F - 66.9 °F 81% 29.92 in 10.0 mi ESE 6.9 mph - N/A   Overcast